User: anonymous   Login
Location: Unspecified
(0.0000°N, 0.0000°E)
Time: 19:15:30
(UTC+00:00)
Language:

USA 82 - Orbit

View from above orbital plane
View from above orbital plane
View from above satellite
View from above satellite

Ground track
Ground track

The orbit data is extracted from the following two-line orbital elements,

1 22009U 92037A   19089.16838325 0.00000000  00000-0  00000-0 0    00
2 22009  12.4256  28.4352 0010982 331.2374  28.7141  0.98811897    06
Epoch (UTC): 30 March 2019 04:02:28
Eccentricity: 0.0010982
inclination: 12.4256°
perigee height: 36154 km
apogee height: 36247 km
right ascension of ascending node: 28.4352°
argument of perigee: 331.2374°
revolutions per day: 0.98811897
mean anomaly at epoch: 28.7141°
orbit number at epoch: 0

The dashed part of the orbit path shows where the satellite is in the earth's shadow,  

DLR